User: anonymous   Login
Location: Bothwell
(42.3833°S, 147.0000°E)
Time: 10:00:06
(UTC+11:00)
Language:

QB50P2 - Orbit

View from above orbital plane
View from above orbital plane
View from above satellite
View from above satellite

Ground track
Ground track

The orbit data is extracted from the following two-line orbital elements,

1 40032U 14033Y   24062.60862686  .00007429  00000-0  65780-3 0  9997
2 40032  97.9965  12.4868 0011383 140.9668 219.2376 14.96519000526722
Epoch (UTC): 02 March 2024 14:36:25
Eccentricity: 0.0011383
inclination: 97.9965°
perigee height: 570 km
apogee height: 585 km
right ascension of ascending node: 12.4868°
argument of perigee: 140.9668°
revolutions per day: 14.96519000
mean anomaly at epoch: 219.2376°
orbit number at epoch: 52672

The dashed part of the orbit path shows where the satellite is in the earth's shadow,  

DLR